Location: Los Gatos B&B
(42.6926°N, 77.0646°W)
Time: 17:59:28
(UTC-04:00)

Daily predictions for brighter satellites

Satellite Brightness Start Highest point End
(mag) Time Altitude Azimuth Time Altitude Azimuth Time Altitude Azimuth
Cosmos 332 Rocket 4.1 21:22:55 10° NNW 21:27:43 67° WSW 21:32:32 10° S
DELTA 2 R/B (1) 3.7 21:22:15 10° W 21:27:44 65° S 21:33:14 10° E
ATLAS CENTAUR R/B 1.9 21:26:01 10° NW 21:30:34 61° WSW 21:34:42 10° SSE
Terra 4.0 21:31:31 10° E 21:33:13 12° ENE 21:34:55 10° NE
Cosmos 1553 Rocket 4.1 21:26:48 10° N 21:33:15 82° E 21:39:36 10° S
CZ-4 SHROUD 3.8 21:30:54 10° SE 21:33:53 42° ENE 21:36:53 10° N
Envisat 3.0 21:28:58 10° SSE 21:34:01 74° ENE 21:39:06 10° N
Cosmos 1515 Rocket 3.7 21:29:48 10° N 21:34:14 61° E 21:38:35 10° SSE
Cosmos 2266 Rocket 4.4 21:28:22 10° SSE 21:34:18 44° E 21:40:10 10° NNE
YAOGAN 6 3.6 21:34:19 10° SE 21:37:34 31° ENE 21:40:49 10° N
ARGOS 4.2 21:33:26 10° SE 21:38:10 32° ENE 21:42:54 10° N
MetOp-A 4.4 21:35:03 10° SSE 21:40:14 55° ENE 21:45:28 10° N
BREEZE-M DEB (TANK) 4.4 21:40:15 10° NW 21:41:54 17° N 21:43:24 10° NE
Nimbus 7 Rocket 4.4 21:37:06 10° NNE 21:42:59 76° ESE 21:48:50 10° S
Cosmos 2292 4.1 21:40:24 10° N 21:43:29 88° WSW 21:46:32 10° S
ERS-1 Rocket 3.8 21:41:44 10° S 21:46:36 50° W 21:51:31 10° NNW
Cosmos 2322 4.4 21:41:09 10° NNW 21:46:38 44° ENE 21:51:39 12° SE
Cosmos 405 3.6 21:43:12 10° N 21:46:41 41° ENE 21:49:43 13° SE
Cosmos 1441 Rocket 3.1 21:44:45 10° S 21:48:33 82° E 21:52:19 10° NNE
Cosmos 1777 Rocket 4.1 21:44:31 10° S 21:49:41 59° ESE 21:54:52 10° NNE
Cosmos 2322 Rocket 2.6 21:49:07 10° NNW 21:54:38 61° WSW 22:00:09 10° S
Cosmos 1939 Rocket 3.6 21:50:50 10° S 21:54:41 50° W 21:58:32 10° NNW
H-2A R/B 3.6 21:51:09 10° ESE 21:55:16 24° ENE 21:59:30 10° NNE
SPOT 5 2.9 21:57:35 10° S 22:02:03 75° WSW 22:06:48 10° NNW
SL-16 R/B 2.7 21:57:37 10° NNW 22:03:10 56° WSW 22:08:41 10° S
Cosmos 371 Rocket 4.3 22:00:11 10° NNW 22:04:44 44° WSW 22:09:16 10° S
Cosmos 1437 3.3 22:02:32 15° SSE 22:04:52 39° E 22:07:58 10° NNE
Meteor 2-2 Rocket 4.5 21:58:58 10° NNW 22:04:58 84° W 22:11:00 10° S
Cosmos 1980 Rocket 4.4 22:01:09 10° NW 22:05:08 20° W 22:09:07 10° SW
Cosmos 1908 3.2 22:01:22 10° N 22:05:16 88° E 22:08:45 13° S
Cosmos 1726 3.9 22:02:51 10° NNE 22:05:39 20° ENE 22:07:30 14° ESE
Cosmos 2151 3.1 22:01:49 11° S 22:05:46 52° E 22:09:52 10° NNE
Cosmos 2360 Rocket 2.4 22:00:41 10° NNW 22:06:18 63° ENE 22:10:48 16° SE
SPOT 1/Viking Rocket 3.6 22:02:25 13° SSE 22:06:55 66° ENE 22:12:02 10° N
NOSS 3-1 (C) 4.4 22:03:18 11° SSE 22:07:38 25° ESE 22:12:38 10° ENE
NOAA 11 4.5 22:04:09 14° SE 22:08:37 55° ENE 22:13:56 10° N
Cosmos 1151 Rocket 3.0 22:04:20 10° N 22:08:40 84° E 22:12:25 13° S
Cosmos 1680 Rocket 3.6 22:10:47 10° NNW 22:16:00 66° ENE 22:19:50 19° SSE
OE (NEXTSAT) 4.4 22:14:30 10° WNW 22:18:04 66° SSW 22:20:08 23° SE
Cosmos 923 Rocket 4.0 22:13:37 10° NNW 22:18:52 90° WSW 22:22:50 18° SSE
H-2A R/B 4.0 22:16:00 10° SSW 22:19:53 28° W 22:23:48 10° NW
Cosmos 1707 Rocket 4.1 22:16:40 10° N 22:20:48 42° ENE 22:23:15 21° SE
Cosmos 1437 Rocket 3.8 22:21:10 10° NNW 22:24:46 42° W 22:28:14 11° SSW
Cosmos 1666 Rocket 4.2 22:23:05 21° SE 22:25:22 37° E 22:29:26 10° NNE
Cosmos 1674 3.5 22:27:07 10° SSW 22:30:50 51° W 22:34:36 10° N
Cosmos 1833 4.3 22:26:03 10° SSW 22:31:47 85° WNW 22:37:30 10° NNE
Cosmos 2227 Rocket 4.0 22:31:10 13° ESE 22:31:47 13° E 22:34:19 10° ENE
Cosmos 1898 Rocket 4.4 22:29:54 22° SE 22:32:06 30° E 22:36:34 10° NE
Cosmos 2333 Rocket 3.9 22:28:35 10° N 22:33:05 23° NE 22:37:13 11° E
CZ-4B R/B 3.7 22:28:45 10° NNE 22:34:04 78° WNW 22:39:16 10° SSW
CZ-4C R/B 3.1 22:34:28 29° SE 22:36:02 60° ENE 22:39:28 10° N
Cosmos 1300 2.8 22:33:42 10° N 22:37:32 62° E 22:39:16 30° SSE
SL-08 RB Rocket 3.6 22:36:32 22° SSE 22:39:23 87° WSW 22:43:54 10° NNW
Cosmos 2058 2.8 22:39:47 21° S 22:42:30 83° E 22:46:38 10° N
Cosmos 1328 4.1 22:40:37 14° SSW 22:43:55 65° W 22:47:53 10° N
Cosmos 1626 4.1 22:44:32 15° E 22:44:37 15° E 22:46:47 10° NE
COSMOS 2428 2.9 22:39:28 10° NNW 22:45:08 63° ENE 22:48:24 25° SE
Meteor 1-4 Rocket 3.4 22:43:53 10° N 22:47:28 38° ENE 22:48:33 31° ESE
USA 229 DEB 4.2 22:42:32 10° SW 22:49:24 64° NW 22:56:23 10° NNE
USA 229 4.2 22:42:37 10° SW 22:49:29 65° NW 22:56:29 10° NNE
DELTA 2 DEB (DPAF) 4.1 22:49:23 27° S 22:51:50 84° WSW 22:56:21 10° NNW
Cosmos 2242 Rocket 3.9 22:47:49 10° N 22:52:12 54° E 22:54:01 32° SE
Cosmos 304 Rocket 4.3 22:47:35 10° NNW 22:52:18 54° WSW 22:55:08 23° S
SL-23 DEB 3.6 22:49:28 10° WNW 22:54:04 73° SW 22:55:10 41° SE
Landsat 7 3.8 22:51:46 27° SSE 22:54:23 87° WSW 22:59:11 10° NNW
USA 32 4.1 22:50:33 10° N 22:55:48 64° E 22:58:24 29° SSE
Cosmos 2297 Rocket 3.8 22:59:14 16° ESE 22:59:30 16° E 23:02:47 10° ENE
Spot 4 4.1 22:57:34 31° SE 22:59:45 59° ENE 23:04:32 10° N
Cosmos 1455 3.5 22:57:24 10° NNE 23:00:37 26° ENE 23:01:18 24° E
IGS 5A 3.5 23:00:13 37° SSE 23:01:47 70° ENE 23:05:56 10° N
SeaSat 1 3.7 23:01:34 19° ESE 23:04:16 32° NE 23:08:38 10° N
Cosmos 2237 4.2 23:01:05 10° NNW 23:06:51 84° WSW 23:09:42 31° SSE
NOSS 3-1 (A) 3.5 23:05:11 22° S 23:08:56 54° ESE 23:15:15 10° NE
Cosmos 2219 Rocket 2.6 23:04:34 10° NNW 23:10:02 50° ENE 23:12:41 28° ESE
Terra 1.8 23:08:07 34° SSE 23:10:14 87° WSW 23:15:02 10° NNW
DELTA 2 R/B (1) 3.9 23:08:36 10° W 23:13:53 46° SSW 23:15:33 35° SSE
Cosmos 292 Rocket 3.9 23:10:13 10° NNW 23:14:57 63° ENE 23:16:37 38° SE
SL-14 R/B 3.7 23:13:39 28° SSW 23:15:33 60° W 23:19:30 10° N
Cosmos 1703 3.1 23:16:03 49° S 23:17:00 76° E 23:20:55 10° NNE
ARGOS 4.3 23:14:35 16° SSW 23:18:19 35° W 23:23:15 10° NNW
Cosmos 1862 Rocket 4.0 23:14:40 10° N 23:18:53 47° ENE 23:19:53 39° ESE
Cosmos 2298 Rocket 4.0 23:15:36 22° SSW 23:19:09 88° WNW 23:24:31 10° NNE
Cosmos 1980 4.3 23:16:16 10° NNW 23:21:43 46° ENE 23:24:17 28° ESE
CARTOSAT-1 3.9 23:20:21 35° SSW 23:21:57 59° W 23:26:14 10° NNW
GEOS 3 Rocket 4.5 23:19:08 21° ESE 23:22:12 43° NE 23:27:04 10° NNW
Cosmos 2219 3.7 23:17:54 10° SW 23:23:35 61° WNW 23:29:18 10° NNE
Cosmos 1271 Rocket 2.7 23:21:53 10° NNW 23:25:41 73° W 23:26:28 53° SSW
Cosmos 1346 4.1 23:28:52 37° NE 23:28:52 37° NE 23:31:06 10° NNE
Cosmos 1633 Rocket 3.6 23:26:22 26° SW 23:28:39 53° W 23:32:58 10° N
Cosmos 2333 4.2 23:23:11 10° NNW 23:28:54 76° WSW 23:31:14 37° S
Sich 1 3.8 23:28:03 23° SW 23:30:30 48° WNW 23:34:48 10° N
ATLAS 2AS CENTAUR R/B 3.5 23:29:35 31° SE 23:31:48 37° ESE 23:38:55 10° NE
H-2A R/B 2.7 23:31:47 28° SSW 23:34:20 49° W 23:39:35 10° NNW
Cosmos 2237 Rocket 2.6 23:29:55 10° NNW 23:35:32 54° ENE 23:37:50 33° ESE
COS B Rocket 4.5 23:33:10 10° NNE 23:36:03 27° E 23:36:03 27° E
Cosmos 1937 Rocket 3.4 23:34:59 36° SSW 23:37:11 83° ESE 23:42:26 10° NNE
Cosmos 2082 4.1 23:36:11 39° SE 23:37:31 46° ESE 23:42:59 10° NE
Cosmos 1726 3.8 23:37:50 10° NNW 23:41:02 27° W 23:42:11 22° WSW
Iridium 2 4.5 23:42:31 36° SW 23:43:32 46° W 23:47:15 10° N
Nadezhda 1 Rocket 4.0 23:38:58 10° N 23:45:02 76° W 23:47:39 36° S
ALOS 2 4.0 23:45:44 24° E 23:46:44 26° ENE 23:50:23 10° NNE
Cosmos 2360 Rocket 4.1 23:45:54 10° WNW 23:49:45 19° W 23:52:34 13° SW
Cosmos 990 Rocket 3.8 23:53:09 46° SSW 23:54:43 84° ESE 23:59:54 10° NNE
